This is the latest recevied weather packets stored in our database for station/object KN6KDD. If no packets are shown the sender has not sent any weather packets the latest 1 day(s).
| Time | Temp. | Humidity | Pressure | Rain* | Wind** | Luminosity | Snow |
|---|---|---|---|---|---|---|---|
| 1778006065 | 13.89° C | 85% | 1355.3 hPa | 0 mm | - | 354 W/m² | - |
| 1778005155 | 13.89° C | 86% | 1355.2 hPa | 0 mm | - | 245 W/m² | - |
| 1778003335 | 13.33° C | 89% | 1354.9 hPa | 0 mm | - | 300 W/m² | - |
| 1778001820 | 12.22° C | 90% | 1354.7 hPa | 0 mm | - | 262 W/m² | - |
| 1778001519 | 11.67° C | 91% | 1354.5 hPa | 0 mm | - | 263 W/m² | - |
| 1778000913 | 11.67° C | 92% | 1354.7 hPa | 0 mm | - | 182 W/m² | - |
| 1778000610 | 11.67° C | 92% | 1354.8 hPa | 0 mm | - | 156 W/m² | - |
| 1778000305 | 11.67° C | 91% | 1354.8 hPa | 0 mm | - | 147 W/m² | - |
| 1777999394 | 12.22° C | 93% | 1354.5 hPa | 0 mm | - | 136 W/m² | - |
| 1777997276 | 11.67° C | 92% | 1354.2 hPa | 0 mm | - | 120 W/m² | - |
| 1777996366 | 11.67° C | 95% | 1354.2 hPa | 0 mm | - | 160 W/m² | - |
| 1777994546 | 10.56° C | 95% | 1353.9 hPa | 0 mm | - | 72 W/m² | - |
| 1777993939 | 10.56° C | 96% | 1353.9 hPa | 0 mm | - | 87 W/m² | - |
| 1777993032 | 10.56° C | 97% | 1353.6 hPa | 0 mm | - | 105 W/m² | - |
| 1777992731 | 10.56° C | 98% | 1353.5 hPa | 0 mm | - | 89 W/m² | - |
| 1777992428 | 10° C | 98% | 1353.5 hPa | 0 mm | - | 88 W/m² | - |
| 1777991217 | 10° C | 99% | 1353.4 hPa | 0 mm | - | 61 W/m² | - |
| 1777990309 | 10° C | 99% | 1353.3 hPa | 0 mm | - | 43 W/m² | - |
| 1777990005 | 10° C | 99% | 1353.1 hPa | 0 mm | - | 40 W/m² | - |
| 1777989095 | 10° C | 99% | 1353 hPa | 0 mm | - | 27 W/m² | - |
* Rain latest hour (hover to see other rain measurements)
** Current wind speed in m/s (hover to see current wind gust speed)